Home   Weather   Township of Toms River   Past weeks
Flag for USA

Past Weather in Township of Toms River, New Jersey, USA — Yesterday and Last 2 Weeks

Now
66 °F

Passing clouds.


Feels Like: 66 °F
Forecast: 74 / 69 °F
Wind: 5 mph from South

Location: Dover Forge
Current Time: Sep 29, 2020 at 12:10:48 am
Latest Report: Sep 28, 2020 at 10:56 pm
Visibility: 10 mi
Pressure29.93 "Hg
Humidity: 93%
Dew Point: 64 °F
Location of Township of Toms RiverLocation

Past Weather in Township of Toms River — Graph

°F

Township of Toms River Temperature Yesterday

Maximum temperature yesterday: 81 °F (at 2:20 pm)
Minimum temperature yesterday: 66 °F (at 9:56 pm)
Average temperature yesterday: 72 °F

High & Low Weather Summary for the Past Weeks

 TemperatureHumidityPressure
High81 °F (Sep 23, 3:56 pm)100% (Sep 18, 1:56 am)30.57 "Hg (Sep 18, 1:56 am)
Low34 °F (Sep 22, 6:56 am)28% (Sep 22, 12:56 pm)29.86 "Hg (Sep 23, 3:56 pm)
Average62 °F78%30.11 "Hg
* Reported Sep 13 9:56 pm — Sep 28 9:56 pm, Township of Toms River. Weather by CustomWeather, © 2020

Note: Actual official high and low records may vary slightly from our data, if they occured in-between our weather recording intervals... More about our weather records

Township of Toms River Weather History for the Previous 24 Hours

Scroll right to see more
 ConditionsComfort  
Time TempWeatherWind HumidityBarometerVisibility
9:56 pm
Mon, Sep 28
66 °FClear.7 mph93%29.93 "Hg10 mi
8:56 pm67 °FClear.7 mph90%29.92 "Hg10 mi
7:56 pm70 °FClear.6 mph84%29.92 "Hg10 mi
6:56 pm70 °FPassing clouds.7 mph84%29.92 "Hg10 mi
5:56 pm73 °FSunny.8 mph76%29.92 "Hg10 mi
4:56 pm76 °FSunny.14 mph69%29.91 "Hg10 mi
3:56 pm79 °FSunny.10 mph67%29.92 "Hg10 mi
2:56 pm80 °FBroken clouds.12 mph64%29.93 "Hg10 mi
2:29 pm79 °FBroken clouds.9 mph70%29.92 "Hg10 mi
2:20 pm81 °FPartly sunny.10 mph66%29.92 "Hg10 mi
1:56 pm80 °FScattered clouds.10 mph64%29.94 "Hg10 mi
1:18 pm79 °FPartly sunny.13 mph70%29.94 "Hg10 mi
12:56 pm76 °FScattered clouds.12 mph77%29.95 "Hg10 mi
12:10 pm73 °FMostly cloudy.9 mph78%29.95 "Hg10 mi
11:56 am76 °FBroken clouds.13 mph77%29.96 "Hg10 mi
11:03 am75 °FBroken clouds.9 mph74%29.96 "Hg10 mi
10:56 am76 °FPartly sunny.9 mph69%29.96 "Hg10 mi
9:56 am75 °FPassing clouds.7 mph74%29.96 "Hg10 mi
9:03 am72 °FScattered clouds.5 mph88%29.93 "Hg10 mi
8:56 am70 °FPartly sunny.3 mph93%29.94 "Hg10 mi
8:33 am70 °FMostly cloudy.5 mph88%29.93 "Hg10 mi
7:56 am68 °FMore clouds than sun.3 mph96%29.94 "Hg10 mi
7:43 am68 °FMore clouds than sun.5 mph94%29.93 "Hg9 mi
7:18 am66 °FMostly cloudy.5 mph100%29.93 "Hg10 mi
6:56 am68 °FLow clouds.6 mph93%29.93 "Hg10 mi
6:35 am68 °FMostly cloudy.6 mph94%29.93 "Hg10 mi
6:18 am68 °FOvercast.5 mph94%29.92 "Hg10 mi
5:56 am68 °FLow clouds.5 mph96%29.92 "Hg10 mi
5:28 am66 °FOvercast.6 mph100%29.90 "Hg10 mi
4:56 am68 °FMostly cloudy.5 mph96%29.90 "Hg10 mi
3:56 am68 °FPassing clouds.6 mph96%29.91 "Hg10 mi
2:56 am69 °FOvercast.7 mph96%29.91 "Hg10 mi
2:19 am70 °FMostly cloudy.9 mph100%29.91 "Hg10 mi
2:05 am70 °FLow clouds.8 mph100%29.91 "Hg10 mi
1:56 am70 °FLow clouds.8 mph97%29.92 "Hg10 mi
1:29 am70 °FLow clouds.7 mph100%29.91 "Hg10 mi
1:11 am70 °FLow clouds.7 mph100%29.91 "Hg10 mi
12:56 am70 °FLight rain. Low clouds.6 mph97%29.92 "Hg7 mi
12:33 am70 °FLight rain. Fog.6 mph100%29.91 "Hg5 mi
12:22 am70 °FLight rain. Fog.6 mph100%29.92 "Hg2 mi
Weather by CustomWeather, © 2020

See weather overview